星链-6253 (STARLINK-6253 )

导读 | 豆包AI

STARLINK-6253是由美国发射的SpaceX星链卫星,于2023年6月22日发射升空,隶属于星链互联网卫星星座。星链项目旨在为全球提供高速低延迟宽带互联网服务,该卫星加入星座后,进一步扩充了星链的卫星网络规模,提升了星座的覆盖能力与服务稳定性。

基本信息
目录编号:
57083
目录名称:
STARLINK-6253
国际标识:
2023-088AM
轨道中心:
EARTH
卫星名称:
星链-6253
卫星全名:
星链-6253 (STARLINK-6253 )
卫星状态:
在轨 (已飞行997 天)
发射日期:
2023-06-22 UTC
国别 :
美国 (US)
星等 :
--
轨道信息
数据来源 国际轨道数据
星历时间: 2026-03-15T22:00:02+0800
7小时前
查看轨道信息
半长轴: 6902.926km
偏心率: 0.0001398
轨道倾角: 43.000°
近地点辐角 279.569°
升交点赤经 62.029°
平近点角 349.796°
近地点: 523.823km
远地点: 525.755km
周期: 95.128分钟
每日圈数: 15.137459
详细信息
固有亮度:
5
最大亮度:
2.4
卫星平台:
Starlink v1.5
覆盖范围:
全球
运营商:
太空探索技术公司
运营商所在国:
美国
制造商(研发单位):
太空探索技术公司
制造商所在国:
美国
使用方式:
暂无
卫星简介
星链(Starlink)计划是由太空探索技术公司(SpaceX)提出的一个巨型低轨卫星互联网星座项目,计划在2019年至2024年间在太空搭建由约1.2万颗卫星组成的“星链”网络,其中1584颗将部署在地球上空550千米处的近地轨道,并从2020年开始工作。该卫星仍在工作。
2D轨道图
3D轨道图
轨道高度分析图
轨道倾角分析图
轨道综合分析图
查看轨道综合分析图